| time (UTC) | temp C | wind direction | speed KPH | gust KPH | rain 1hr cm | rain 24hr cm | rain mn cm | humidity % | barometer mb |
| 20260507044352 | 15 | 308 | 4.8 | 12.9 | 0.00 | 0.00 | 0.00 | 89 | 1017.1 |
| 20260507043852 | 15 | 315 | 3.2 | 8.0 | 0.00 | 0.00 | 0.00 | 89 | 1017.1 |
| 20260507043352 | 15 | 301 | 3.2 | 11.3 | 0.00 | 0.00 | 0.00 | 89 | 1017.0 |
| 20260507042352 | 15 | 246 | 3.2 | 9.7 | 0.00 | 0.00 | 0.00 | 89 | 1017.0 |
| 20260507041852 | 15 | 251 | 4.8 | 11.3 | 0.00 | 0.00 | 0.00 | 88 | 1017.0 |
| 20260507041353 | 15 | 319 | 4.8 | 11.3 | 0.00 | 0.00 | 0.00 | 88 | 1017.0 |
| 20260507040353 | 15 | 299 | 4.8 | 9.7 | 0.00 | 0.00 | 0.00 | 88 | 1016.9 |
| 20260507035853 | 15 | 340 | 6.4 | 14.5 | 0.00 | 0.00 | 0.00 | 89 | 1016.9 |
| 20260507035352 | 15 | 316 | 6.4 | 12.9 | 0.00 | 0.00 | 0.00 | 88 | 1016.8 |
| 20260507034852 | 15 | 313 | 4.8 | 11.3 | 0.00 | 0.00 | 0.00 | 88 | 1016.7 |
| 20260507034352 | 15 | 296 | 3.2 | 9.7 | 0.00 | 0.00 | 0.00 | 88 | 1016.7 |
| 20260507033852 | 15 | 302 | 4.8 | 12.9 | 0.00 | 0.00 | 0.00 | 88 | 1016.7 |
| 20260507033352 | 15 | 318 | 3.2 | 8.0 | 0.00 | 0.00 | 0.00 | 88 | 1016.5 |
| 20260507032351 | 15 | 283 | 3.2 | 12.9 | 0.00 | 0.00 | 0.00 | 87 | 1016.6 |
| 20260507031352 | 15 | 328 | 9.7 | 14.5 | 0.00 | 0.00 | 0.00 | 88 | 1016.4 |
| 20260507030852 | 15 | 314 | 4.8 | 14.5 | 0.00 | 0.00 | 0.00 | 88 | 1016.4 |
| 20260507030352 | 15 | 283 | 9.7 | 16.1 | 0.00 | 0.00 | 0.00 | 88 | 1016.4 |
| 20260507025852 | 15 | 323 | 8.0 | 16.1 | 0.00 | 0.00 | 0.00 | 87 | 1016.3 |
| 20260507025352 | 16 | 274 | 9.7 | 14.5 | 0.00 | 0.00 | 0.00 | 87 | 1016.3 |
| 20260507024852 | 16 | 288 | 6.4 | 16.1 | 0.00 | 0.00 | 0.00 | 86 | 1016.3 |
| 20260507024352 | 16 | 276 | 11.3 | 19.3 | 0.00 | 0.00 | 0.00 | 85 | 1016.3 |
| 20260507023352 | 16 | 270 | 9.7 | 19.3 | 0.00 | 0.00 | 0.00 | 84 | 1016.1 |
| 20260507022852 | 16 | 252 | 9.7 | 20.9 | 0.00 | 0.00 | 0.00 | 84 | 1016.1 |
| 20260507022352 | 16 | 283 | 9.7 | 19.3 | 0.00 | 0.00 | 0.00 | 83 | 1016.1 |
| 20260507021852 | 16 | 249 | 8.0 | 19.3 | 0.00 | 0.00 | 0.00 | 83 | 1016.0 |
| 20260507021352 | 16 | 246 | 8.0 | 19.3 | 0.00 | 0.00 | 0.00 | 83 | 1016.0 |
| 20260507020851 | 16 | 285 | 8.0 | 19.3 | 0.00 | 0.00 | 0.00 | 82 | 1016.0 |
| 20260507020352 | 16 | 250 | 6.4 | 16.1 | 0.00 | 0.00 | 0.00 | 82 | 1016.0 |
| 20260507015852 | 17 | 356 | 8.0 | 19.3 | 0.00 | 0.00 | 0.00 | 82 | 1015.9 |
| 20260507015352 | 17 | 333 | 8.0 | 16.1 | 0.00 | 0.00 | 0.00 | 82 | 1016.0 |
| 20260507014852 | 17 | 335 | 8.0 | 19.3 | 0.00 | 0.00 | 0.00 | 82 | 1016.0 |
| 20260507014352 | 17 | 350 | 9.7 | 19.3 | 0.00 | 0.00 | 0.00 | 82 | 1016.0 |
| 20260507013852 | 17 | 336 | 9.7 | 19.3 | 0.00 | 0.00 | 0.00 | 81 | 1015.9 |
| 20260507012852 | 17 | 293 | 9.7 | 20.9 | 0.00 | 0.00 | 0.00 | 81 | 1015.9 |
| 20260507012352 | 17 | 328 | 9.7 | 19.3 | 0.00 | 0.00 | 0.00 | 81 | 1015.9 |
| 20260507011352 | 17 | 278 | 11.3 | 25.7 | 0.00 | 0.00 | 0.00 | 81 | 1015.9 |
| 20260507010851 | 17 | 284 | 11.3 | 19.3 | 0.00 | 0.00 | 0.00 | 80 | 1015.9 |
| 20260507005852 | 17 | 311 | 11.3 | 22.5 | 0.00 | 0.00 | 0.00 | 81 | 1015.8 |
| 20260507005352 | 17 | 314 | 11.3 | 19.3 | 0.00 | 0.00 | 0.00 | 81 | 1015.8 |
| 20260507004852 | 17 | 308 | 9.7 | 22.5 | 0.00 | 0.00 | 0.00 | 81 | 1015.8 |
| 20260507003852 | 17 | 351 | 12.9 | 22.5 | 0.00 | 0.00 | 0.00 | 80 | 1015.9 |
| 20260507003352 | 17 | 265 | 11.3 | 20.9 | 0.00 | 0.00 | 0.00 | 80 | 1016.0 |
| 20260507002352 | 17 | 339 | 9.7 | 19.3 | 0.00 | 0.00 | 0.00 | 80 | 1015.9 |
| 20260507001852 | 17 | 307 | 11.3 | 19.3 | 0.00 | 0.00 | 0.00 | 79 | 1016.0 |
| 20260507001352 | 18 | 347 | 11.3 | 19.3 | 0.00 | 0.00 | 0.00 | 79 | 1015.9 |
| 20260507000852 | 18 | 335 | 11.3 | 20.9 | 0.00 | 0.00 | 0.00 | 79 | 1015.9 |
| 20260507000353 | 18 | 333 | 11.3 | 20.9 | 0.00 | 0.00 | 0.00 | 79 | 1015.9 |
| 20260506235851 | 18 | 328 | 9.7 | 19.3 | 0.00 | 0.00 | 0.00 | 79 | 1015.9 |
| 20260506235352 | 18 | 325 | 12.9 | 22.5 | 0.00 | 0.00 | 0.00 | 79 | 1015.9 |
| 20260506234852 | 18 | 339 | 12.9 | 22.5 | 0.00 | 0.00 | 0.00 | 78 | 1015.9 |
| 20260506234352 | 18 | 347 | 9.7 | 20.9 | 0.00 | 0.00 | 0.00 | 79 | 1016.0 |
| 20260506233852 | 18 | 306 | 9.7 | 19.3 | 0.00 | 0.00 | 0.00 | 79 | 1015.9 |
| 20260506233352 | 18 | 352 | 9.7 | 20.9 | 0.00 | 0.00 | 0.00 | 77 | 1015.9 |
| 20260506232852 | 18 | 333 | 11.3 | 19.3 | 0.00 | 0.00 | 0.00 | 77 | 1016.0 |
| 20260506232351 | 18 | 351 | 14.5 | 20.9 | 0.00 | 0.00 | 0.00 | 75 | 1015.9 |
| 20260506231852 | 18 | 344 | 9.7 | 19.3 | 0.00 | 0.00 | 0.00 | 75 | 1015.9 |
| 20260506231351 | 18 | 325 | 9.7 | 19.3 | 0.00 | 0.00 | 0.00 | 75 | 1016.0 |
| 20260506230852 | 18 | 334 | 9.7 | 20.9 | 0.00 | 0.00 | 0.00 | 74 | 1016.1 |
| 20260506230352 | 18 | 317 | 8.0 | 19.3 | 0.00 | 0.00 | 0.00 | 75 | 1016.1 |
| 20260506225852 | 18 | 331 | 8.0 | 19.3 | 0.00 | 0.00 | 0.00 | 75 | 1016.1 |
| 20260506224852 | 18 | 324 | 9.7 | 19.3 | 0.00 | 0.00 | 0.00 | 75 | 1016.2 |
| 20260506223852 | 18 | 267 | 11.3 | 22.5 | 0.00 | 0.00 | 0.00 | 75 | 1016.3 |
| 20260506223352 | 18 | 273 | 11.3 | 19.3 | 0.00 | 0.00 | 0.00 | 75 | 1016.4 |
| 20260506222852 | 18 | 305 | 12.9 | 20.9 | 0.00 | 0.00 | 0.00 | 74 | 1016.4 |
| 20260506222352 | 18 | 318 | 9.7 | 19.3 | 0.00 | 0.00 | 0.00 | 74 | 1016.4 |
| 20260506221351 | 18 | 293 | 11.3 | 22.5 | 0.00 | 0.00 | 0.00 | 75 | 1016.5 |
| 20260506220852 | 18 | 343 | 11.3 | 22.5 | 0.00 | 0.00 | 0.00 | 75 | 1016.6 |
| 20260506220352 | 18 | 341 | 9.7 | 20.9 | 0.00 | 0.00 | 0.00 | 76 | 1016.6 |
| 20260506215852 | 18 | 331 | 9.7 | 22.5 | 0.00 | 0.00 | 0.00 | 76 | 1016.7 |
| 20260506215352 | 18 | 341 | 9.7 | 19.3 | 0.00 | 0.00 | 0.00 | 77 | 1016.8 |
| 20260506214852 | 18 | 320 | 11.3 | 22.5 | 0.00 | 0.00 | 0.00 | 76 | 1016.8 |
| 20260506214352 | 18 | 334 | 11.3 | 20.9 | 0.00 | 0.00 | 0.00 | 77 | 1016.9 |
| 20260506213851 | 18 | 333 | 11.3 | 22.5 | 0.00 | 0.00 | 0.00 | 76 | 1016.9 |
| 20260506213352 | 18 | 349 | 11.3 | 24.1 | 0.00 | 0.00 | 0.00 | 77 | 1017.0 |
| 20260506212851 | 18 | 336 | 9.7 | 20.9 | 0.00 | 0.00 | 0.00 | 77 | 1017.0 |
| 20260506212352 | 18 | 335 | 9.7 | 19.3 | 0.00 | 0.00 | 0.00 | 77 | 1017.0 |
| 20260506211852 | 18 | 320 | 11.3 | 22.5 | 0.00 | 0.00 | 0.00 | 77 | 1017.1 |
| 20260506211352 | 18 | 291 | 9.7 | 25.7 | 0.00 | 0.00 | 0.00 | 78 | 1017.2 |
| 20260506210852 | 18 | 300 | 11.3 | 19.3 | 0.00 | 0.00 | 0.00 | 78 | 1017.1 |
| 20260506210352 | 18 | 320 | 11.3 | 20.9 | 0.00 | 0.00 | 0.00 | 77 | 1017.2 |
| 20260506205852 | 18 | 300 | 9.7 | 20.9 | 0.00 | 0.00 | 0.00 | 77 | 1017.2 |
| 20260506204852 | 18 | 310 | 11.3 | 19.3 | 0.00 | 0.00 | 0.00 | 77 | 1017.2 |
| 20260506204352 | 18 | 333 | 9.7 | 19.3 | 0.00 | 0.00 | 0.00 | 77 | 1017.3 |
| 20260506203852 | 18 | 337 | 8.0 | 19.3 | 0.00 | 0.00 | 0.00 | 78 | 1017.3 |
| 20260506202852 | 18 | 338 | 9.7 | 19.3 | 0.00 | 0.00 | 0.00 | 77 | 1017.3 |
| 20260506202351 | 18 | 319 | 11.3 | 19.3 | 0.00 | 0.00 | 0.00 | 77 | 1017.4 |
| 20260506201852 | 18 | 345 | 11.3 | 19.3 | 0.00 | 0.00 | 0.00 | 77 | 1017.3 |
| 20260506200851 | 18 | 344 | 9.7 | 22.5 | 0.00 | 0.00 | 0.00 | 76 | 1017.5 |
| 20260506200352 | 18 | 330 | 8.0 | 19.3 | 0.00 | 0.00 | 0.00 | 75 | 1017.5 |
| 20260506195851 | 18 | 352 | 9.7 | 20.9 | 0.00 | 0.00 | 0.00 | 75 | 1017.5 |
| 20260506195352 | 18 | 308 | 9.7 | 16.1 | 0.00 | 0.00 | 0.00 | 75 | 1017.5 |
| 20260506194852 | 18 | 329 | 8.0 | 16.1 | 0.00 | 0.00 | 0.00 | 75 | 1017.6 |
| 20260506194352 | 18 | 306 | 9.7 | 16.1 | 0.00 | 0.00 | 0.00 | 75 | 1017.7 |
| 20260506193852 | 18 | 334 | 8.0 | 19.3 | 0.00 | 0.00 | 0.00 | 76 | 1017.8 |
| 20260506193352 | 18 | 330 | 11.3 | 19.3 | 0.00 | 0.00 | 0.00 | 76 | 1017.7 |
| 20260506192852 | 18 | 333 | 9.7 | 19.3 | 0.00 | 0.00 | 0.00 | 76 | 1017.8 |
| 20260506192352 | 18 | 350 | 11.3 | 20.9 | 0.00 | 0.00 | 0.00 | 75 | 1017.8 |
| 20260506191852 | 18 | 328 | 8.0 | 19.3 | 0.00 | 0.00 | 0.00 | 76 | 1017.9 |
| 20260506191352 | 18 | 356 | 8.0 | 19.3 | 0.00 | 0.00 | 0.00 | 76 | 1018.0 |
| 20260506190852 | 18 | 293 | 8.0 | 19.3 | 0.00 | 0.00 | 0.00 | 75 | 1018.0 |
| 20260506190351 | 18 | 328 | 11.3 | 19.3 | 0.00 | 0.00 | 0.00 | 74 | 1018.0 |
| 20260506185852 | 18 | 336 | 9.7 | 19.3 | 0.00 | 0.00 | 0.00 | 74 | 1018.0 |
| 20260506185352 | 18 | 324 | 9.7 | 19.3 | 0.00 | 0.00 | 0.00 | 74 | 1018.0 |
| 20260506184852 | 18 | 336 | 9.7 | 16.1 | 0.00 | 0.00 | 0.00 | 72 | 1018.1 |
| 20260506184352 | 18 | 348 | 8.0 | 19.3 | 0.00 | 0.00 | 0.00 | 72 | 1018.2 |
| 20260506183852 | 18 | 351 | 9.7 | 19.3 | 0.00 | 0.00 | 0.00 | 72 | 1018.2 |
| 20260506183352 | 18 | 323 | 9.7 | 14.5 | 0.00 | 0.00 | 0.00 | 72 | 1018.2 |
| 20260506182852 | 18 | 354 | 9.7 | 19.3 | 0.00 | 0.00 | 0.00 | 71 | 1018.2 |
| 20260506182352 | 18 | 348 | 11.3 | 19.3 | 0.00 | 0.00 | 0.00 | 70 | 1018.3 |
| 20260506181851 | 18 | 331 | 9.7 | 19.3 | 0.00 | 0.00 | 0.00 | 71 | 1018.2 |
| 20260506181353 | 18 | 327 | 8.0 | 16.1 | 0.00 | 0.00 | 0.00 | 69 | 1018.3 |
| 20260506180852 | 18 | 339 | 8.0 | 14.5 | 0.00 | 0.00 | 0.00 | 71 | 1018.4 |
| 20260506180352 | 18 | 329 | 8.0 | 19.3 | 0.00 | 0.00 | 0.00 | 70 | 1018.4 |
| 20260506175352 | 17 | 324 | 8.0 | 14.5 | 0.00 | 0.00 | 0.00 | 72 | 1018.4 |
| 20260506174852 | 17 | 326 | 8.0 | 14.5 | 0.00 | 0.00 | 0.00 | 75 | 1018.3 |
| 20260506174352 | 17 | 348 | 9.7 | 14.5 | 0.00 | 0.00 | 0.00 | 75 | 1018.3 |
| 20260506173851 | 17 | 314 | 8.0 | 14.5 | 0.00 | 0.00 | 0.00 | 78 | 1018.2 |
| 20260506173352 | 17 | 305 | 8.0 | 16.1 | 0.00 | 0.00 | 0.00 | 78 | 1018.3 |
| 20260506172351 | 17 | 305 | 8.0 | 14.5 | 0.00 | 0.00 | 0.00 | 80 | 1018.3 |
| 20260506171351 | 17 | 343 | 8.0 | 14.5 | 0.00 | 0.00 | 0.00 | 79 | 1018.3 |
| 20260506170852 | 17 | 290 | 9.7 | 14.5 | 0.00 | 0.00 | 0.00 | 78 | 1018.3 |
| 20260506170352 | 17 | 320 | 4.8 | 12.9 | 0.00 | 0.00 | 0.00 | 78 | 1018.2 |
| 20260506165851 | 17 | 312 | 4.8 | 16.1 | 0.00 | 0.00 | 0.00 | 78 | 1018.2 |
| 20260506165351 | 17 | 332 | 6.4 | 9.7 | 0.00 | 0.00 | 0.00 | 78 | 1018.1 |
| 20260506164852 | 17 | 297 | 8.0 | 11.3 | 0.00 | 0.00 | 0.00 | 77 | 1018.1 |
| 20260506164352 | 17 | 300 | 6.4 | 11.3 | 0.00 | 0.00 | 0.00 | 78 | 1018.2 |
| 20260506163852 | 17 | 278 | 6.4 | 12.9 | 0.00 | 0.00 | 0.00 | 78 | 1018.1 |
| 20260506163352 | 16 | 293 | 4.8 | 11.3 | 0.00 | 0.00 | 0.00 | 78 | 1018.1 |
| 20260506162852 | 16 | 277 | 8.0 | 12.9 | 0.00 | 0.00 | 0.00 | 77 | 1018.2 |
| 20260506162351 | 17 | 294 | 4.8 | 11.3 | 0.00 | 0.00 | 0.00 | 77 | 1018.1 |
| 20260506161351 | 17 | 298 | 3.2 | 9.7 | 0.00 | 0.00 | 0.00 | 74 | 1018.1 |
| 20260506160852 | 17 | 339 | 3.2 | 8.0 | 0.00 | 0.00 | 0.00 | 74 | 1018.1 |
| 20260506160351 | 17 | 100 | 4.8 | 11.3 | 0.00 | 0.00 | 0.00 | 76 | 1018.0 |
| 20260506155352 | 17 | 68 | 4.8 | 9.7 | 0.00 | 0.00 | 0.00 | 76 | 1018.0 |
| 20260506154852 | 17 | 103 | 3.2 | 11.3 | 0.00 | 0.00 | 0.00 | 77 | 1018.0 |
| 20260506154352 | 17 | 86 | 4.8 | 11.3 | 0.00 | 0.00 | 0.00 | 78 | 1018.0 |
| 20260506153852 | 17 | 61 | 3.2 | 4.8 | 0.00 | 0.00 | 0.00 | 79 | 1018.0 |
| 20260506153352 | 17 | 118 | 1.6 | 9.7 | 0.00 | 0.00 | 0.00 | 79 | 1018.0 |
| 20260506152851 | 17 | 30 | 3.2 | 4.8 | 0.00 | 0.00 | 0.00 | 79 | 1018.1 |
| 20260506152352 | 16 | 101 | 3.2 | 4.8 | 0.00 | 0.00 | 0.00 | 80 | 1018.1 |
| 20260506151852 | 16 | 80 | 1.6 | 3.2 | 0.00 | 0.00 | 0.00 | 81 | 1018.2 |
| 20260506151352 | 16 | 90 | 1.6 | 4.8 | 0.00 | 0.00 | 0.00 | 81 | 1018.2 |
| 20260506150852 | 16 | 43 | 3.2 | 4.8 | 0.00 | 0.00 | 0.00 | 82 | 1018.1 |
| 20260506150352 | 16 | 97 | 1.6 | 4.8 | 0.00 | 0.00 | 0.00 | 82 | 1018.2 |
| 20260506145852 | 15 | 108 | 1.6 | 4.8 | 0.00 | 0.00 | 0.00 | 83 | 1018.2 |
| 20260506145352 | 15 | 112 | 3.2 | 4.8 | 0.00 | 0.00 | 0.00 | 83 | 1018.1 |
| 20260506144852 | 15 | 81 | 3.2 | 8.0 | 0.00 | 0.00 | 0.00 | 83 | 1018.1 |
| 20260506144352 | 15 | 85 | 3.2 | 4.8 | 0.00 | 0.00 | 0.00 | 84 | 1018.1 |
| 20260506143852 | 15 | 91 | 3.2 | 4.8 | 0.00 | 0.00 | 0.00 | 84 | 1018.0 |
| 20260506143351 | 15 | 91 | 3.2 | 4.8 | 0.00 | 0.00 | 0.00 | 85 | 1018.0 |
| 20260506142852 | 15 | 72 | 1.6 | 4.8 | 0.00 | 0.00 | 0.00 | 85 | 1018.0 |
| 20260506142352 | 14 | 46 | 3.2 | 4.8 | 0.00 | 0.00 | 0.00 | 86 | 1018.0 |
| 20260506141851 | 14 | 91 | 1.6 | 4.8 | 0.00 | 0.00 | 0.00 | 87 | 1018.0 |
| 20260506141352 | 14 | 75 | 1.6 | 4.8 | 0.00 | 0.00 | 0.00 | 88 | 1017.9 |
| 20260506140851 | 13 | 51 | 0.0 | 3.2 | 0.00 | 0.00 | 0.00 | 89 | 1017.9 |
| 20260506140353 | 13 | 187 | 1.6 | 3.2 | 0.00 | 0.00 | 0.00 | 90 | 1017.9 |
| 20260506135852 | 13 | 187 | 0.0 | 1.6 | 0.00 | 0.00 | 0.00 | 90 | 1017.9 |
| 20260506134852 | 12 | 187 | 0.0 | 1.6 | 0.00 | 0.00 | 0.00 | 90 | 1017.8 |
| 20260506134352 | 12 | 187 | 0.0 | 1.6 | 0.00 | 0.00 | 0.00 | 90 | 1017.8 |
| 20260506133352 | 12 | 187 | 0.0 | 0.0 | 0.00 | 0.00 | 0.00 | 90 | 1017.7 |
| 20260506132852 | 12 | 187 | 0.0 | 1.6 | 0.00 | 0.00 | 0.00 | 90 | 1017.7 |
| 20260506132352 | 11 | 187 | 1.6 | 1.6 | 0.00 | 0.00 | 0.00 | 90 | 1017.7 |
| 20260506131852 | 11 | 187 | 1.6 | 3.2 | 0.00 | 0.00 | 0.00 | 90 | 1017.6 |
| 20260506131352 | 11 | 187 | 1.6 | 1.6 | 0.00 | 0.00 | 0.00 | 89 | 1017.5 |
| 20260506130851 | 12 | 187 | 1.6 | 3.2 | 0.00 | 0.00 | 0.00 | 89 | 1017.5 |
| 20260506130352 | 12 | 187 | 1.6 | 1.6 | 0.00 | 0.00 | 0.00 | 89 | 1017.4 |
| 20260506125851 | 12 | 187 | 0.0 | 1.6 | 0.00 | 0.00 | 0.00 | 89 | 1017.4 |
| 20260506125351 | 12 | 187 | 0.0 | 1.6 | 0.00 | 0.00 | 0.00 | 90 | 1017.3 |
| 20260506124352 | 11 | 187 | 1.6 | 3.2 | 0.00 | 0.00 | 0.00 | 89 | 1017.1 |
| 20260506123851 | 12 | 187 | 1.6 | 3.2 | 0.00 | 0.00 | 0.00 | 89 | 1017.1 |
| 20260506123352 | 12 | 187 | 1.6 | 4.8 | 0.00 | 0.00 | 0.00 | 89 | 1017.1 |
| 20260506122852 | 12 | 175 | 1.6 | 4.8 | 0.00 | 0.00 | 0.00 | 89 | 1017.1 |
| 20260506122352 | 12 | 183 | 1.6 | 3.2 | 0.00 | 0.00 | 0.00 | 89 | 1017.0 |
| 20260506120851 | 12 | 184 | 1.6 | 3.2 | 0.00 | 0.00 | 0.00 | 88 | 1017.0 |
| 20260506120352 | 12 | 186 | 1.6 | 4.8 | 0.00 | 0.00 | 0.00 | 88 | 1017.0 |
| 20260506115852 | 12 | 186 | 1.6 | 4.8 | 0.00 | 0.00 | 0.00 | 88 | 1017.0 |
| 20260506115352 | 12 | 186 | 1.6 | 3.2 | 0.00 | 0.00 | 0.00 | 88 | 1016.9 |
| 20260506114852 | 12 | 180 | 1.6 | 3.2 | 0.00 | 0.00 | 0.00 | 88 | 1016.9 |
| 20260506114352 | 12 | 181 | 1.6 | 4.8 | 0.00 | 0.00 | 0.00 | 88 | 1016.9 |
| 20260506113851 | 12 | 186 | 1.6 | 3.2 | 0.00 | 0.00 | 0.00 | 88 | 1016.9 |
| 20260506113351 | 12 | 186 | 1.6 | 3.2 | 0.00 | 0.00 | 0.00 | 88 | 1016.8 |
| 20260506112852 | 12 | 186 | 1.6 | 3.2 | 0.00 | 0.00 | 0.00 | 87 | 1016.8 |
| 20260506112352 | 12 | 188 | 1.6 | 4.8 | 0.00 | 0.00 | 0.00 | 87 | 1016.7 |
| 20260506111851 | 12 | 186 | 1.6 | 3.2 | 0.00 | 0.00 | 0.00 | 87 | 1016.8 |
| 20260506110851 | 12 | 186 | 0.0 | 1.6 | 0.00 | 0.00 | 0.00 | 87 | 1016.8 |
| 20260506110352 | 12 | 186 | 1.6 | 3.2 | 0.00 | 0.00 | 0.00 | 87 | 1016.8 |
| 20260506105852 | 12 | 186 | 1.6 | 3.2 | 0.00 | 0.00 | 0.00 | 87 | 1016.8 |
| 20260506105352 | 12 | 186 | 1.6 | 3.2 | 0.00 | 0.00 | 0.00 | 86 | 1016.8 |
| 20260506104851 | 12 | 186 | 3.2 | 4.8 | 0.00 | 0.00 | 0.00 | 87 | 1016.8 |
| 20260506104351 | 12 | 158 | 1.6 | 3.2 | 0.00 | 0.00 | 0.00 | 87 | 1016.9 |
| 20260506103852 | 12 | 174 | 1.6 | 4.8 | 0.00 | 0.00 | 0.00 | 88 | 1016.9 |
| 20260506103351 | 12 | 187 | 1.6 | 3.2 | 0.00 | 0.00 | 0.00 | 88 | 1016.9 |
| 20260506102852 | 12 | 187 | 1.6 | 3.2 | 0.00 | 0.00 | 0.00 | 87 | 1016.8 |
| 20260506102352 | 12 | 187 | 1.6 | 4.8 | 0.00 | 0.00 | 0.00 | 87 | 1016.8 |
| 20260506101852 | 12 | 187 | 1.6 | 3.2 | 0.00 | 0.00 | 0.00 | 88 | 1016.8 |
| 20260506101351 | 12 | 187 | 1.6 | 3.2 | 0.00 | 0.00 | 0.00 | 88 | 1016.8 |
| 20260506100351 | 12 | 187 | 1.6 | 3.2 | 0.00 | 0.00 | 0.00 | 88 | 1016.8 |
| 20260506095852 | 12 | 187 | 1.6 | 3.2 | 0.00 | 0.00 | 0.00 | 88 | 1016.9 |
| 20260506095351 | 12 | 187 | 1.6 | 3.2 | 0.00 | 0.00 | 0.00 | 88 | 1016.9 |
| 20260506094852 | 12 | 187 | 1.6 | 3.2 | 0.00 | 0.00 | 0.00 | 88 | 1016.8 |
| 20260506094351 | 12 | 187 | 1.6 | 3.2 | 0.00 | 0.00 | 0.00 | 88 | 1016.8 |
| 20260506093852 | 12 | 187 | 1.6 | 3.2 | 0.00 | 0.00 | 0.00 | 88 | 1016.9 |
| 20260506093352 | 12 | 187 | 1.6 | 3.2 | 0.00 | 0.00 | 0.00 | 88 | 1016.9 |
| 20260506092852 | 12 | 187 | 1.6 | 3.2 | 0.00 | 0.00 | 0.00 | 88 | 1016.9 |
| 20260506092352 | 13 | 187 | 1.6 | 3.2 | 0.00 | 0.00 | 0.00 | 88 | 1017.0 |
| 20260506091851 | 13 | 187 | 1.6 | 3.2 | 0.00 | 0.00 | 0.00 | 88 | 1017.0 |
| 20260506091351 | 13 | 187 | 1.6 | 3.2 | 0.00 | 0.00 | 0.00 | 88 | 1017.0 |
| 20260506090852 | 13 | 187 | 1.6 | 1.6 | 0.00 | 0.00 | 0.00 | 88 | 1017.0 |
| 20260506090352 | 13 | 187 | 0.0 | 1.6 | 0.00 | 0.00 | 0.00 | 87 | 1017.2 |
| 20260506085852 | 13 | 187 | 1.6 | 3.2 | 0.00 | 0.00 | 0.00 | 87 | 1017.2 |
| 20260506084852 | 13 | 187 | 1.6 | 4.8 | 0.00 | 0.00 | 0.00 | 87 | 1017.2 |
| 20260506084351 | 13 | 187 | 0.0 | 1.6 | 0.00 | 0.00 | 0.00 | 87 | 1017.3 |
| 20260506083851 | 13 | 187 | 1.6 | 3.2 | 0.00 | 0.00 | 0.00 | 87 | 1017.3 |
| 20260506083352 | 13 | 175 | 0.0 | 3.2 | 0.00 | 0.00 | 0.00 | 87 | 1017.3 |
| 20260506082852 | 13 | 175 | 0.0 | 1.6 | 0.00 | 0.00 | 0.00 | 87 | 1017.3 |
| 20260506082351 | 13 | 175 | 0.0 | 3.2 | 0.00 | 0.00 | 0.00 | 87 | 1017.3 |
| 20260506081851 | 13 | 175 | 1.6 | 3.2 | 0.00 | 0.00 | 0.00 | 86 | 1017.3 |
| 20260506081351 | 13 | 175 | 1.6 | 4.8 | 0.00 | 0.00 | 0.00 | 86 | 1017.3 |
| 20260506080352 | 13 | 198 | 0.0 | 0.0 | 0.00 | 0.00 | 0.00 | 85 | 1017.4 |
| 20260506073351 | 13 | 198 | 1.6 | 3.2 | 0.00 | 0.00 | 0.00 | 85 | 1017.4 |
| 20260506072852 | 13 | 198 | 0.0 | 1.6 | 0.00 | 0.00 | 0.00 | 85 | 1017.3 |
| 20260506072352 | 13 | 198 | 1.6 | 3.2 | 0.00 | 0.00 | 0.00 | 85 | 1017.3 |
| 20260506071851 | 13 | 198 | 1.6 | 3.2 | 0.00 | 0.00 | 0.00 | 85 | 1017.1 |
| 20260506071352 | 13 | 198 | 0.0 | 1.6 | 0.00 | 0.00 | 0.00 | 84 | 1017.0 |
| 20260506070851 | 13 | 198 | 1.6 | 3.2 | 0.00 | 0.00 | 0.00 | 84 | 1017.0 |
| 20260506070352 | 13 | 198 | 0.0 | 3.2 | 0.00 | 0.00 | 0.00 | 84 | 1016.9 |
| 20260506062352 | 13 | 198 | 0.0 | 3.2 | 0.00 | 0.00 | 0.00 | 82 | 1016.8 |
| 20260506061852 | 13 | 198 | 0.0 | 1.6 | 0.00 | 0.00 | 0.00 | 82 | 1016.8 |
| 20260506060351 | 13 | 198 | 1.6 | 3.2 | 0.00 | 0.00 | 0.00 | 80 | 1016.8 |
| 20260506051352 | 14 | 238 | 0.0 | 0.0 | 0.00 | 0.00 | 0.00 | 75 | 1016.4 |
| 20260506050353 | 14 | 238 | 0.0 | 3.2 | 0.00 | 0.00 | 0.00 | 74 | 1016.3 |